TimePST,TemperatureF,Dew PointF,Humidity,Sea Level PressureIn,VisibilityMPH,Wind Direction,Wind SpeedMPH,Gust SpeedMPH,PrecipitationIn,Events,Conditions,WindDirDegrees,DateUTC
12:54 AM,25.0,21.9,88,30.64,7.0,Calm,Calm,-,N/A,,Clear,0,2013-11-22 08:54:00
1:54 AM,24.1,21.9,91,30.64,7.0,Calm,Calm,-,N/A,,Clear,0,2013-11-22 09:54:00
2:54 AM,24.1,19.9,84,30.64,7.0,Calm,Calm,-,N/A,,Clear,0,2013-11-22 10:54:00
3:54 AM,23.0,21.0,92,30.63,7.0,Calm,Calm,-,N/A,,Clear,0,2013-11-22 11:54:00
4:54 AM,23.0,19.9,88,30.62,7.0,NNE,3.5,-,N/A,,Clear,20,2013-11-22 12:54:00
5:54 AM,21.9,19.0,89,30.62,7.0,Calm,Calm,-,N/A,,Clear,0,2013-11-22 13:54:00
6:54 AM,23.0,21.0,92,30.64,5.0,Calm,Calm,-,N/A,,Clear,0,2013-11-22 14:54:00
7:54 AM,21.9,19.0,89,30.63,5.0,Calm,Calm,-,N/A,,Clear,0,2013-11-22 15:54:00
8:54 AM,30.0,27.0,88,30.63,10.0,Calm,Calm,-,N/A,,Clear,0,2013-11-22 16:54:00
9:54 AM,36.0,28.0,73,30.62,10.0,Calm,Calm,-,N/A,,Clear,0,2013-11-22 17:54:00
10:54 AM,37.9,30.0,73,30.60,10.0,NE,3.5,-,N/A,,Clear,50,2013-11-22 18:54:00
11:54 AM,41.0,30.0,65,30.57,10.0,NNE,5.8,-,N/A,,Clear,20,2013-11-22 19:54:00
12:54 PM,44.1,30.0,58,30.55,10.0,NE,6.9,-,N/A,,Clear,40,2013-11-22 20:54:00
1:54 PM,44.1,28.0,53,30.53,10.0,NNE,9.2,-,N/A,,Clear,30,2013-11-22 21:54:00
2:54 PM,46.0,28.9,51,30.52,10.0,NE,8.1,-,N/A,,Clear,40,2013-11-22 22:54:00
3:54 PM,43.0,28.9,58,30.51,10.0,NNE,6.9,-,N/A,,Clear,30,2013-11-22 23:54:00
4:54 PM,41.0,28.0,60,30.50,10.0,NNE,5.8,-,N/A,,Clear,20,2013-11-23 00:54:00
5:54 PM,37.0,28.9,73,30.49,9.0,Calm,Calm,-,N/A,,Clear,0,2013-11-23 01:54:00
6:54 PM,37.0,28.9,73,30.49,10.0,NNE,3.5,-,N/A,,Clear,20,2013-11-23 02:54:00
7:54 PM,28.0,25.0,88,30.49,9.0,Calm,Calm,-,N/A,,Clear,0,2013-11-23 03:54:00
8:54 PM,27.0,25.0,92,30.48,10.0,Calm,Calm,-,N/A,,Clear,0,2013-11-23 04:54:00
9:54 PM,26.1,24.1,92,30.48,7.0,Calm,Calm,-,N/A,,Clear,0,2013-11-23 05:54:00
10:54 PM,26.1,25.0,96,30.47,8.0,Calm,Calm,-,N/A,,Clear,0,2013-11-23 06:54:00
11:54 PM,27.0,25.0,92,30.47,8.0,Calm,Calm,-,N/A,,Clear,0,2013-11-23 07:54:00